TimeEST,TemperatureF,Dew PointF,Humidity,Sea Level PressureIn,VisibilityMPH,Wind Direction,Wind SpeedMPH,Gust SpeedMPH,PrecipitationIn,Events,Conditions,WindDirDegrees,DateUTC
12:12 AM,50.0,46.4,87,30.28,4.0,NNW,9.2,-,N/A,,Overcast,340,2012-12-14 05:12:00
12:53 AM,48.2,46.4,93,30.28,4.0,NNW,8.1,-,N/A,,Overcast,340,2012-12-14 05:53:00
1:22 AM,48.2,46.4,93,30.27,6.0,NNW,5.8,-,N/A,,Overcast,340,2012-12-14 06:22:00
1:53 AM,48.9,46.9,93,30.27,7.0,NNW,6.9,-,N/A,,Overcast,340,2012-12-14 06:53:00
2:03 AM,48.2,46.4,93,30.26,8.0,North,8.1,-,N/A,,Overcast,350,2012-12-14 07:03:00
2:33 AM,48.2,46.4,93,30.25,8.0,NNW,8.1,-,N/A,,Overcast,340,2012-12-14 07:33:00
2:53 AM,48.9,46.9,93,30.25,8.0,NNW,10.4,-,N/A,,Overcast,340,2012-12-14 07:53:00
3:18 AM,48.2,46.4,93,30.25,9.0,NNW,10.4,-,N/A,,Overcast,330,2012-12-14 08:18:00
3:25 AM,48.2,46.4,93,30.25,9.0,NNW,8.1,-,N/A,,Overcast,330,2012-12-14 08:25:00
3:53 AM,48.9,46.0,90,30.26,9.0,NNW,6.9,-,N/A,,Mostly Cloudy,340,2012-12-14 08:53:00
4:11 AM,48.2,46.4,93,30.25,9.0,NNW,8.1,-,N/A,,Overcast,340,2012-12-14 09:11:00
4:53 AM,48.9,46.0,90,30.25,9.0,North,8.1,-,N/A,,Overcast,350,2012-12-14 09:53:00
5:53 AM,48.9,46.0,90,30.27,9.0,North,4.6,-,N/A,,Overcast,360,2012-12-14 10:53:00
6:53 AM,48.9,46.0,90,30.28,9.0,North,5.8,-,N/A,,Overcast,350,2012-12-14 11:53:00
7:13 AM,48.2,46.4,93,30.27,9.0,North,6.9,-,N/A,,Overcast,10,2012-12-14 12:13:00
7:53 AM,48.9,46.0,90,30.29,8.0,North,6.9,-,N/A,,Overcast,360,2012-12-14 12:53:00
8:53 AM,50.0,46.9,89,30.32,8.0,North,10.4,-,N/A,,Overcast,10,2012-12-14 13:53:00
9:53 AM,51.1,46.9,86,30.34,10.0,NNW,4.6,-,N/A,,Overcast,340,2012-12-14 14:53:00
10:53 AM,53.1,48.0,83,30.35,10.0,NNE,10.4,-,N/A,,Overcast,30,2012-12-14 15:53:00
11:12 AM,53.6,48.2,82,30.34,10.0,NE,10.4,-,N/A,,Overcast,40,2012-12-14 16:12:00
11:53 AM,54.0,48.0,80,30.32,10.0,NNE,12.7,-,N/A,,Overcast,30,2012-12-14 16:53:00
12:38 PM,55.4,48.2,77,30.29,10.0,NE,12.7,-,N/A,,Partly Cloudy,40,2012-12-14 17:38:00
12:53 PM,55.9,48.9,77,30.29,10.0,NE,11.5,-,N/A,,Clear,40,2012-12-14 17:53:00
1:53 PM,57.0,48.9,74,30.24,10.0,NE,11.5,-,N/A,,Clear,40,2012-12-14 18:53:00
2:53 PM,57.0,46.9,69,30.21,10.0,NNE,11.5,19.6,N/A,,Clear,30,2012-12-14 19:53:00
3:53 PM,57.0,46.0,67,30.21,10.0,NNE,12.7,-,N/A,,Clear,30,2012-12-14 20:53:00
4:53 PM,55.9,46.0,69,30.22,10.0,NNE,8.1,-,N/A,,Clear,30,2012-12-14 21:53:00
5:53 PM,53.1,45.0,74,30.22,10.0,ENE,4.6,-,N/A,,Clear,70,2012-12-14 22:53:00
6:53 PM,53.1,45.0,74,30.23,10.0,NE,6.9,-,N/A,,Clear,50,2012-12-14 23:53:00
7:53 PM,53.1,45.0,74,30.23,10.0,NNE,6.9,-,N/A,,Clear,30,2012-12-15 00:53:00
8:53 PM,53.1,46.0,77,30.22,10.0,North,3.5,-,N/A,,Mostly Cloudy,350,2012-12-15 01:53:00
9:53 PM,55.0,48.9,80,30.23,10.0,North,5.8,-,N/A,,Overcast,350,2012-12-15 02:53:00
10:53 PM,55.9,46.9,72,30.21,10.0,North,8.1,-,N/A,,Overcast,10,2012-12-15 03:53:00
11:53 PM,57.0,45.0,64,30.20,10.0,North,8.1,-,N/A,,Overcast,10,2012-12-15 04:53:00